Regional Weather Roundup
Issued by NWS

Home | Current Version | Previous Version | Text Only | Print | Product List | Glossary Off
Versions: 1 2 3 4 5 6 7 8 9 10 11 12 13 14 15 16 17 18 19 20 21 22 23 24 25 26 27 28 29 30 31 32 33 34 35 36 37 38 39 40 41 42 43 44 45 46 47 48 49 50

000
ASUS43 KMPX 271401
RWRMN
WEATHER ROUNDUP FOR MINNESOTA
NATIONAL WEATHER SERVICE TWIN CITIES/CHANHASSEN MN
900 AM CDT MON APR 27 2015


NOTE: "FAIR" INDICATES FEW OR NO CLOUDS BELOW 12,000 FEET WITH NO
SIGNIFICANT WEATHER AND/OR OBSTRUCTIONS TO VISIBILITY. N/A MEANS
CURRENT SKY AND/OR WEATHER CONDITIONS ARE NOT AVAILABLE.

MNZ060>063-068>070-271500-
   Twin Cities Metro

CITY           SKY/WX    TMP DP  RH WIND       PRES   REMARKS
TWIN CITIES    SUNNY     53  29  39 N3        30.24R
ST PAUL        SUNNY     51  31  46 NW5       30.25R
CRYSTAL        SUNNY     52  28  39 VRB3      30.23R
BLAINE         SUNNY     48  32  53 CALM      30.23R
LAKEVILLE      SUNNY     50  28  43 CALM      30.23R
EDEN PRAIRIE   SUNNY     53  28  38 N3        30.22R
SOUTH ST PAUL  SUNNY     52  28  40 N3        30.23R
LAKE ELMO      FAIR      50  30  46 N6        30.24R
$$
MNZ001>005-007-008-013>017-022>024-027-028-271500-
   Northwest Minnesota

CITY           SKY/WX    TMP DP  RH WIND       PRES   REMARKS
BEMIDJI        SUNNY     48  28  45 CALM      30.22S
HALLOCK        CLOUDY    48  36  61 CALM      30.20S
ROSEAU         PTSUNNY   54  27  35 SW5       30.21R
WARROAD        MOSUNNY   52  32  46 CALM      30.21S
THIEF RVR FALL MOSUNNY   55  27  33 SW8       30.21S
CROOKSTON      PTSUNNY   54  28  37 SW6       30.22R
FOSSTON        MOSUNNY   52  25  35 SW5       30.22S
DETROIT LAKES  SUNNY     52  32  46 CALM      30.24S
MOORHEAD       MOSUNNY   50  27  40 S3        30.24R
PARK RAPIDS    SUNNY     50  31  48 W3        30.22R
MAHNOMEN       FAIR      51  25  35 SW6       30.22R
$$
MNZ006-009>011-018-025>026-271500-
   North Central Minnesota

CITY           SKY/WX    TMP DP  RH WIND       PRES   REMARKS
BAUDETTE       SUNNY     50  24  36 S3        30.21S
FLAG ISLAND    MOSUNNY   43  28  56 S6        30.20S
INTL FALLS     SUNNY     49  31  49 CALM      30.23R
WASKISH        SUNNY     54  28  37 CALM      30.21S
BIG FORK       SUNNY     52  28  40 CALM      30.22S
LONGVILLE      SUNNY     52  28  40 CALM      30.21S
GRAND RAPIDS   SUNNY     46  25  42 CALM      30.23R
CRANE LAKE     SUNNY     43  30  61 CALM      30.25S
ORR            SUNNY     48  25  40 CALM      30.21R
COOK           SUNNY     46  28  49 CALM      30.23R
WALKER         FAIR      45  32  59 CALM      30.22S
$$
MNZ012-019>021-037-271500-
   Northeast Minnesota

CITY           SKY/WX    TMP DP  RH WIND       PRES   REMARKS
DULUTH         SUNNY     50  26  39 N8        30.22R
ELY            SUNNY     45  30  57 CALM      30.23R
HIBBING        SUNNY     48  22  35 CALM      30.22S
EVELETH        SUNNY     45  27  49 CALM      30.23R
DULUTH HARBOR  SUNNY     43  32  65 CALM      30.24S
TWO HARBORS    SUNNY     55  32  41 CALM      30.20S
SILVER BAY     SUNNY     54  30  40 E3        30.20S
GRAND MARAIS     N/A     46  31  55 S8        30.22S
G MARAIS ARPRT SUNNY     48  25  40 NW7       30.21S
$$
MNZ029>031-032-039>041-046>048-054>057-064-271500-
   West Central Minnesota

CITY           SKY/WX    TMP DP  RH WIND       PRES   REMARKS
FERGUS FALLS   SUNNY     52  21  30 S3        30.25R
WHEATON        SUNNY     48  28  46 CALM      30.26R
MORRIS         SUNNY     52  30  43 S6        30.24R
ALEXANDRIA     SUNNY     51  31  46 SW9       30.25R
ELBOW LAKE     FAIR      51  28  40 S8        30.24R
WADENA         SUNNY     50  23  34 W6        30.22S
GLENWOOD       SUNNY     52  28  40 SW9       30.25R
APPLETON       SUNNY     52  27  37 CALM      30.25R
BENSON         SUNNY     48  28  46 CALM      30.25R
ORTONVILLE     SUNNY     48  32  53 CALM      30.25R
MADISON        SUNNY     48  30  49 CALM      30.25R
WILLMAR        FAIR      52  30  43 SW6       30.26R
$$
MNZ033>034-036-042>043-049>051-058-059-271500-
   Central Minnesota

CITY           SKY/WX    TMP DP  RH WIND       PRES   REMARKS
ST CLOUD       SUNNY     48  28  46 CALM      30.24R
SAUK CENTRE    FAIR      48  31  51 W3        30.24R
PAYNESVILLE    SUNNY     45  30  54 CALM      30.24S
AITKIN         SUNNY     48  28  46 CALM      30.21S
PINE RIVER     SUNNY     48  30  49 CALM      30.24S
BRAINERD       SUNNY     48  28  46 W3        30.23R
STAPLES        SUNNY     46  28  49 CALM      30.22S
LONG PRAIRIE   FAIR      50  28  43 SW5       30.23S
LITTLE FALLS   SUNNY     46  30  53 CALM      30.23S
LITCHFIELD     SUNNY     50  30  46 CALM      30.25R
BUFFALO        SUNNY     50  29  45 CALM      30.24S
MAPLE LAKE     SUNNY     51  32  49 CALM      30.25R
$$
MNZ037-044-045-052-053-271500-
   East Central Minnesota

CITY           SKY/WX    TMP DP  RH WIND       PRES   REMARKS
PRINCETON      SUNNY     50  30  46 CALM      30.24R
MORA           SUNNY     46  32  57 CALM      30.24S
CAMBRIDGE      SUNNY     52  34  50 CALM      30.21S
RUSH CITY      SUNNY     48  31  51 CALM      30.24R
MOOSE LAKE     SUNNY     46  30  53 CALM      30.21S
HINCKLEY       FAIR      50  32  50 CALM      30.23S
CLOQUET        SUNNY     48  25  40 NW5       30.22R
MCGREGOR       SUNNY     45  32  61 CALM      30.23S
$$
MNZ071>073-080-081-089-090-097-098-271500-
   Southwest Minnesota

CITY           SKY/WX    TMP DP  RH WIND       PRES   REMARKS
MONTEVIDEO     SUNNY     54  32  43 SW6       30.26R
GRANITE FALLS  SUNNY     49  27  42 CALM      30.26S
CANBY          SUNNY     48  29  47 CALM      30.26S
MARSHALL       SUNNY     48  25  40 W5        30.25R
REDWOOD FALLS  SUNNY     50  30  46 CALM      30.24R
OLIVIA         SUNNY     52  27  37 S5        30.24R
PIPESTONE      SUNNY     52  27  37 S2        30.24R
WINDOM         SUNNY     50  27  40 CALM      30.24R
WORTHINGTON    SUNNY     52  27  37 CALM      30.24S
JACKSON        SUNNY     52  23  32 N5        30.23S
TRACY          SUNNY     53  25  34 CALM      30.25R
SLAYTON        SUNNY     50  26  38 CALM      30.26R
$$
MNZ065>067-074>077-082>085-091>093-271500-
   South Central Minnesota

CITY           SKY/WX    TMP DP  RH WIND       PRES   REMARKS
MANKATO        SUNNY     50  27  40 NE6       30.24R
NEW ULM        SUNNY     50  27  40 CALM      30.24R
ST JAMES       SUNNY     52  27  37 NE5       30.24S
FAIRMONT       SUNNY     52  27  37 NE6       30.22S
GLENCOE        SUNNY     51  32  47 CALM      30.24R
FARIBAULT      SUNNY     50  28  43 N5        30.24R
OWATONNA       SUNNY     48  25  40 N3        30.23R
ALBERT LEA     SUNNY     48  28  46 NE7       30.22S
$$
MNZ078>079-086>088-094>096-271500-
   Southeast Minnesota

CITY           SKY/WX    TMP DP  RH WIND       PRES   REMARKS
ROCHESTER      SUNNY     47  30  51 NE5       30.23R
RED WING       SUNNY     50  27  40 E3        30.22R
STANTON        SUNNY     49  28  43 N3        30.23R
DODGE CENTER   SUNNY     46  30  53 CALM      30.22R
WINONA         SUNNY     48  32  53 NW3       30.22R
AUSTIN         SUNNY     46  30  53 N5        30.22R
PRESTON        SUNNY     45  30  55 CALM      30.22R
$$
ABBREVIATIONS USED IN REMARKS
   TC - TEMPERATURES IN CELSIUS
  WCI - WIND CHILL INDEX
   HX - HEAT INDEX
  VSB - VISIBILITY
$$



USA.gov is the U.S. government's official web portal to all federal, state and local government web resources and services.